Location: Burgberg
(50.1428°N, 11.0671°E)
Time: 21:28:39
(UTC+00:00)

Cosmos 1076 Rocket - Pass Details

Date: 26 January 2020
Orbit: 590 x 612 km, 82.5° (Epoch: 17 February)

Event Time Altitude Azimuth Distance (km) Brightness Sun altitude
Rises 05:21:02 0° 351° (N) 2,892 6.8 -15.5°
Reaches altitude 10° 05:23:17 10° 354° (N) 1,983 6.0 -15.1°
Maximum altitude 05:27:40 72° 78° (ENE) 650 3.8 -14.4°
Drops below altitude 10° 05:32:01 10° 164° (SSE) 1,963 6.5 -13.7°
Sets 05:34:14 0° 166° (SSE) 2,861 7.4 -13.4°
